Content
SEND FEEDBACK

Daily
Averages
Monthly
Summary
United States of America

TAMUNING, GUAM


Home > North America > United States > Guam
Elevation: 250 feet     Latitude: 13 29N     Longitude: 144 47E

WEATHER
 
SELECT A DAY
Number of Records: 341,524;   Date Range: 1/1/95 - 7/7/14
 
SHARE

PRINT THIS DATA

[ ← Previous Day ]
WEATHER ALMANAC - JANUARY 20, 2014
[ Next Day → ]
[ °C ]   °F
Weather ElementAverageHighLow
Temperature77.9 °F82.4 °F (10:53 am)73.4 °F (2:08 am)
Dewpoint67.1 °F78.8 °F (11:40 am) (7:00 pm)
Humidity88.1 %100 % (2:53 am)69 % (7:58 pm)
Barometer29.86 in29.92 in (8:33 am)29.78 in (2:58 pm)
Wind Speed14.7 mph23 mph (12:08 pm)
Wind Gust28.8 mph (1:12 pm)
Weather ElementAverage
Visibility9.1 mi
Wind DirectionENE (57.1 °)

Weather ElementTotal
Precipitation0.14 in
Cooling Degree Days12.9 (Base 65)
Growing Degree Days27.9 (Base 50)
Averaged from 94 records on January 20, 2014
WEATHER CONDITIONS BREAKOUT
WIND DIRECTION BREAKOUT
WEATHER BY HOUR - JANUARY 20, 2014
[ °C ]   °F
Local TimeTemperatureDewpointHumidityBarometerVisibilityWind DirectionWind SpeedGust SpeedPrecipitationEventsConditions
12:33 AM77.0 °F73.4 °F89 %29.90 in10.0 miENE (60°)10.4 mphScattered Clouds
12:58 AM75.7 °F72.1 °F89 %29.87 in10.0 miENE (60°)9.2 mphMostly Cloudy
1:58 AM74.1 °F70.7 °F89 %29.86 in10.0 miNE (40°)11.5 mphScattered Clouds
2:03 AM75.2 °F71.6 °F89 %29.88 in10.0 miENE (60°)10.4 mphMostly Cloudy
2:08 AM73.4 °F69.8 °F88 %29.88 in10.0 miENE (60°)8.1 mphMostly Cloudy
2:13 AM75.2 °F73.4 °F94 %29.88 in10.0 miENE (60°)6.9 mphScattered Clouds
2:18 AM77.0 °F73.4 °F89 %29.87 in10.0 miENE (60°)8.1 mphMostly Cloudy
2:28 AM75.2 °F73.4 °F94 %29.87 in10.0 miENE (60°)9.2 mphScattered Clouds
2:53 AM75.2 °F75.2 °F100 %29.86 in10.0 miENE (60°)10.4 mphMostly Cloudy
2:58 AM75.9 °F74.5 °F95 %29.83 in10.0 miNE (50°)10.4 mphMostly Cloudy
3:03 AM77.0 °F75.2 °F94 %29.86 in10.0 miENE (60°)5.8 mphMostly Cloudy
3:13 AM77.0 °F75.2 °F94 %29.86 in10.0 miNE (50°)15.0 mphMostly Cloudy
3:38 AM77.0 °F71.6 °F83 %29.86 in10.0 miNE (50°)13.8 mphMostly Cloudy
3:43 AM77.0 °F71.6 °F83 %29.86 in10.0 miNE (40°)16.1 mphMostly Cloudy
3:48 AM77.0 °F71.6 °F83 %29.86 in10.0 miNE (40°)16.1 mphScattered Clouds
3:58 AM76.8 °F70.9 °F82 %29.83 in10.0 miNE (50°)12.7 mphPartly Cloudy
4:58 AM77.4 °F72.0 °F83 %29.83 in10.0 miNE (40°)15.0 mphScattered Clouds
5:35 AM77.0 °F73.4 °F89 %29.86 in10.0 miNE (40°)17.3 mphRainLight Rain
5:45 AM77.0 °F73.4 °F89 %29.87 in10.0 miNE (40°)18.4 mphMostly Cloudy
5:50 AM77.0 °F71.6 °F83 %29.87 in10.0 miNE (40°)17.3 mphScattered Clouds
5:58 AM76.8 °F71.8 °F84 %29.84 in10.0 miNE (50°)18.4 mph0.00 inScattered Clouds
6:58 AM77.0 °F71.8 °F84 %29.86 in10.0 miNE (50°)12.7 mphPartly Cloudy
7:53 AM77.0 °F73.4 °F89 %29.90 in10.0 miNNE (30°)17.3 mph24.2 mphMostly Cloudy
7:58 AM77.7 °F73.8 °F88 %29.88 in10.0 miNE (40°)18.4 mph24.2 mphMostly Cloudy
8:23 AM78.8 °F73.4 °F83 %29.91 in10.0 miNE (50°)17.3 mphMostly Cloudy
8:33 AM78.8 °F75.2 °F89 %29.92 in10.0 miNE (50°)17.3 mphMostly Cloudy
8:58 AM78.1 °F73.9 °F87 %29.89 in10.0 miNE (40°)18.4 mph24.2 mphMostly Cloudy
9:03 AM78.8 °F73.4 °F83 %29.92 in10.0 miNE (50°)19.6 mph24.2 mphMostly Cloudy
9:12 AM77.0 °F75.2 °F94 %29.92 in8.0 miEast (80°)18.4 mph25.3 mphRainLight Rain
9:23 AM77.0 °F75.2 °F94 %29.92 in9.0 miENE (70°)10.4 mphMostly Cloudy
9:28 AM77.0 °F75.2 °F94 %29.92 in10.0 miENE (60°)12.7 mphScattered Clouds
9:33 AM77.0 °F75.2 °F94 %29.91 in10.0 miNE (40°)20.7 mph24.2 mphMostly Cloudy
9:43 AM78.8 °F73.4 °F83 %29.91 in10.0 miNE (50°)18.4 mph25.3 mphScattered Clouds
9:58 AM80.1 °F73.6 °F81 %29.88 in10.0 miNE (40°)20.7 mph27.6 mph0.00 inScattered Clouds
10:13 AM80.6 °F73.4 °F79 %29.91 in10.0 miNE (40°)18.4 mph25.3 mphMostly Cloudy
10:38 AM80.6 °F73.4 °F79 %29.90 in10.0 miNE (50°)20.7 mph25.3 mphMostly Cloudy
10:53 AM82.4 °F75.2 °F79 %29.89 in10.0 miNE (50°)16.1 mph24.2 mphMostly Cloudy
10:58 AM82.0 °F75.4 °F80 %29.86 in10.0 miNE (50°)17.3 mph24.2 mphMostly Cloudy
11:03 AM80.6 °F75.2 °F84 %29.89 in10.0 miNE (50°)18.4 mph21.9 mphMostly Cloudy
11:28 AM78.8 °F71.6 °F78 %29.88 in10.0 miNE (50°)19.6 mphScattered Clouds
11:35 AM80.6 °F75.2 °F84 %29.88 in9.0 miNE (50°)19.6 mphRainLight Rain
11:40 AM78.8 °F78.8 °F100 %29.87 in7.0 miNE (50°)18.4 mphRainLight Rain
11:50 AM75.2 °F73.4 °F94 %29.87 in10.0 miNE (50°)17.3 mphMostly Cloudy
11:55 AM75.2 °F71.6 °F89 %29.87 in10.0 miNE (50°)20.7 mph25.3 mphMostly Cloudy
11:58 AM74.5 °F70.9 °F88 %29.84 in10.0 miNE (50°)20.7 mph27.6 mph0.00 inMostly Cloudy
12:08 PM80.6 °F75.2 °F84 %29.87 in10.0 miNE (50°)23.0 mph27.6 mphMostly Cloudy
12:13 PM80.6 °F73.4 °F79 %29.86 in10.0 miENE (60°)18.4 mph27.6 mphScattered Clouds
12:33 PM82.4 °F75.2 °F79 %29.85 in10.0 miNE (50°)19.6 mphMostly Cloudy
12:53 PM80.6 °F75.2 °F84 %29.85 in10.0 miENE (60°)18.4 mphMostly Cloudy
12:58 PM81.5 °F74.7 °F80 %29.82 in10.0 miENE (60°)17.3 mphMostly Cloudy
1:03 PM82.4 °F75.2 °F79 %29.85 in10.0 miNE (50°)17.3 mphMostly Cloudy
1:12 PM80.6 °F77.0 °F89 %29.84 in4.0 miENE (60°)19.6 mph28.8 mphRainLight Rain
1:17 PM77.0 °F77.0 °F100 %29.84 in3.0 miENE (60°)17.3 mph28.8 mphLight Drizzle
1:22 PM77.0 °F77.0 °F100 %29.84 in6.0 miENE (60°)13.8 mphMostly Cloudy
1:27 PM78.8 °F77.0 °F94 %29.83 in10.0 miENE (60°)13.8 mphScattered Clouds
1:58 PM80.8 °F74.8 °F82 %29.79 in10.0 miENE (60°)15.0 mph21.9 mph0.01 inPartly Cloudy
2:18 PM82.4 °F75.2 °F79 %29.82 in10.0 miNE (50°)20.7 mphMostly Cloudy
2:28 PM82.4 °F73.4 °F74 %29.81 in10.0 miENE (60°)15.0 mph25.3 mphScattered Clouds
2:38 PM82.4 °F75.2 °F79 %29.81 in10.0 miENE (60°)17.3 mphMostly Cloudy
2:43 PM82.4 °F75.2 °F79 %29.81 in10.0 miNE (50°)17.3 mphScattered Clouds
2:58 PM81.5 °F74.3 °F79 %29.78 in10.0 miENE (60°)19.6 mphScattered Clouds
3:58 PM81.3 °F74.8 °F81 %29.78 in10.0 miNE (50°)18.4 mphScattered Clouds
4:38 PM80.6 °F77.0 °F89 %29.81 in10.0 miNE (50°)11.5 mphMostly Cloudy
4:43 PM80.6 °F77.0 °F89 %29.82 in10.0 miNE (50°)15.0 mphMostly Cloudy
4:53 PM78.8 °F75.2 °F89 %29.82 in10.0 miNE (50°)16.1 mphMostly Cloudy
4:58 PM79.3 °F75.0 °F87 %29.81 in10.0 miENE (60°)17.3 mphScattered Clouds
5:03 PM78.8 °F75.2 °F89 %29.83 in10.0 miENE (60°)13.8 mphMostly Cloudy
5:18 PM78.8 °F75.2 °F89 %29.83 in10.0 miENE (60°)15.0 mphMostly Cloudy
5:37 PM78.8 °F75.2 °F89 %29.83 in5.0 miEast (90°)16.1 mph24.2 mphRainLight Rain
5:38 PM78.8 °F75.2 °F89 %29.83 in5.0 miEast (100°)15.0 mph24.2 mphRainLight Rain
5:43 PM77.0 °F77.0 °F100 %29.84 in2.0 miEast (90°)12.7 mph24.2 mphRainLight Rain
5:53 PM75.2 °F75.2 °F100 %29.84 in2.5 miEast (90°)9.2 mphRainLight Rain
5:58 PM75.6 °F75.6 °F100 %29.81 in2.5 miEast (80°)9.2 mph0.08 inRainLight Rain
6:03 PM75.2 °F0.0 °F29.84 in3.0 miENE (70°)10.4 mphRainLight Rain
6:13 PM75.2 °F0.0 °F29.84 in5.0 miEast (90°)11.5 mph20.7 mphRainLight Rain
6:18 PM75.2 °F0.0 °F29.84 in3.0 miENE (70°)10.4 mph20.7 mphRainLight Rain
6:23 PM75.2 °F0.0 °F29.84 in7.0 miENE (70°)8.1 mphMostly Cloudy
6:33 PM75.2 °F0.0 °F29.84 in6.0 miEast (90°)11.5 mphRainRain
6:42 PM75.2 °F0.0 °F29.84 in6.0 miEast (80°)15.0 mph20.7 mphHaze
6:58 PM76.1 °F74.8 °F96 %29.81 in10.0 miENE (60°)10.4 mph0.05 inMostly Cloudy
7:58 PM77.0 °F66.2 °F69 %29.84 in10.0 miENE (60°)16.1 mph23.0 mphScattered Clouds
8:08 PM75.2 °F0.0 °F29.87 in10.0 miENE (60°)10.4 mphMostly Cloudy
8:13 PM75.2 °F0.0 °F29.87 in10.0 miENE (60°)10.4 mphMostly Cloudy
8:58 PM77.0 °F0.0 °F29.86 in10.0 miENE (60°)10.4 mphMostly Cloudy
9:08 PM77.0 °F75.2 °F94 %29.88 in10.0 miENE (60°)12.7 mphMostly Cloudy
9:18 PM77.0 °F75.2 °F94 %29.88 in10.0 miENE (70°)8.1 mphMostly Cloudy
9:53 PM77.0 °F75.2 °F94 %29.88 in10.0 miENE (60°)11.5 mphMostly Cloudy
9:58 PM76.8 °F75.6 °F96 %29.86 in10.0 miENE (60°)11.5 mphMostly Cloudy
10:03 PM77.0 °F75.2 °F94 %29.88 in10.0 miENE (60°)13.8 mphMostly Cloudy
10:28 PM77.0 °F77.0 °F100 %29.88 in10.0 miNE (50°)8.1 mphMostly Cloudy
10:58 PM77.0 °F75.2 °F94 %29.86 in10.0 miENE (60°)12.7 mph17.3 mphScattered Clouds
11:48 PM77.0 °F75.2 °F94 %29.88 in10.0 miENE (60°)11.5 mphMostly Cloudy
11:53 PM77.0 °F75.2 °F94 %29.88 in10.0 miENE (60°)12.7 mphMostly Cloudy
11:58 PM77.4 °F75.7 °F95 %29.86 in10.0 miENE (60°)13.8 mphMostly Cloudy
Hourly data recorded from PGUA, located miles away from Tamuning, Guam







STORIES FROM OUR PARTNERS